| time (UTC) | temp F | wind direction | speed MPH | gust MPH | rain 1hr in | rain 24hr in | rain mn in | humidity % | barometer mb |
| 20260510213033 | 54 | 169 | 1.0 | 4.0 | 0.00 | 0.07 | 0.07 | 91 | 1013.0 |
| 20260510212529 | 54 | 0.0 | 0.0 | 0.00 | 0.07 | 0.07 | 91 | 1013.0 | |
| 20260510212057 | 54 | 171 | 1.0 | 2.0 | 0.00 | 0.08 | 0.07 | 91 | 1013.0 |
| 20260510211553 | 54 | 180 | 2.0 | 4.0 | 0.00 | 0.08 | 0.07 | 91 | 1012.9 |
| 20260510210542 | 54 | 195 | 3.0 | 7.0 | 0.00 | 0.09 | 0.07 | 91 | 1012.7 |
| 20260510210033 | 54 | 175 | 2.0 | 4.0 | 0.00 | 0.09 | 0.07 | 91 | 1012.8 |
| 20260510205529 | 54 | 180 | 2.0 | 4.0 | 0.00 | 0.09 | 0.07 | 91 | 1012.7 |
| 20260510205045 | 55 | 177 | 2.0 | 4.0 | 0.00 | 0.09 | 0.07 | 90 | 1012.8 |
| 20260510204541 | 55 | 158 | 2.0 | 4.0 | 0.00 | 0.09 | 0.07 | 90 | 1012.7 |
| 20260510203042 | 55 | 167 | 1.0 | 2.0 | 0.00 | 0.11 | 0.07 | 90 | 1012.3 |
| 20260510202532 | 55 | 175 | 3.0 | 4.0 | 0.00 | 0.11 | 0.07 | 90 | 1012.2 |
| 20260510202029 | 55 | 158 | 3.0 | 4.0 | 0.00 | 0.11 | 0.07 | 90 | 1012.3 |
| 20260510201534 | 55 | 172 | 3.0 | 4.0 | 0.00 | 0.11 | 0.07 | 90 | 1012.2 |
| 20260510201030 | 56 | 178 | 2.0 | 4.0 | 0.00 | 0.11 | 0.07 | 90 | 1012.2 |
| 20260510200053 | 56 | 204 | 3.0 | 4.0 | 0.00 | 0.11 | 0.07 | 89 | 1012.1 |
| 20260510195545 | 56 | 182 | 2.0 | 4.0 | 0.00 | 0.11 | 0.07 | 89 | 1012.2 |
| 20260510195041 | 56 | 180 | 2.0 | 4.0 | 0.00 | 0.11 | 0.07 | 89 | 1012.1 |
| 20260510194605 | 56 | 201 | 3.0 | 4.0 | 0.00 | 0.11 | 0.07 | 90 | 1012.0 |
| 20260510194057 | 56 | 207 | 3.0 | 4.0 | 0.00 | 0.11 | 0.07 | 90 | 1012.2 |
| 20260510193554 | 56 | 192 | 3.0 | 4.0 | 0.00 | 0.11 | 0.07 | 89 | 1012.1 |
| 20260510192545 | 57 | 213 | 4.0 | 7.0 | 0.00 | 0.11 | 0.07 | 89 | 1011.9 |
| 20260510192042 | 57 | 193 | 4.0 | 4.0 | 0.00 | 0.11 | 0.07 | 89 | 1011.9 |
| 20260510191033 | 57 | 182 | 3.0 | 4.0 | 0.00 | 0.11 | 0.07 | 89 | 1011.9 |
| 20260510190530 | 57 | 180 | 3.0 | 4.0 | 0.00 | 0.11 | 0.07 | 89 | 1012.0 |
| 20260510185609 | 56 | 234 | 6.0 | 8.0 | 0.00 | 0.11 | 0.07 | 88 | 1011.8 |
| 20260510185105 | 56 | 248 | 7.0 | 11.0 | 0.00 | 0.11 | 0.07 | 88 | 1011.8 |
| 20260510184557 | 57 | 234 | 4.0 | 7.0 | 0.00 | 0.11 | 0.07 | 88 | 1011.9 |
| 20260510184053 | 57 | 217 | 5.0 | 9.0 | 0.00 | 0.11 | 0.07 | 88 | 1011.7 |
| 20260510183545 | 57 | 223 | 3.0 | 6.0 | 0.02 | 0.11 | 0.07 | 89 | 1011.7 |
| 20260510183042 | 57 | 207 | 4.0 | 6.0 | 0.02 | 0.11 | 0.07 | 90 | 1011.6 |
| 20260510182032 | 58 | 228 | 4.0 | 8.0 | 0.02 | 0.11 | 0.07 | 91 | 1011.4 |
| 20260510181529 | 58 | 180 | 2.0 | 2.0 | 0.02 | 0.11 | 0.07 | 91 | 1011.5 |
| 20260510181042 | 58 | 202 | 3.0 | 7.0 | 0.02 | 0.11 | 0.07 | 91 | 1011.5 |
| 20260510180533 | 57 | 203 | 4.0 | 7.0 | 0.02 | 0.11 | 0.07 | 91 | 1011.6 |
| 20260510180029 | 57 | 225 | 4.0 | 7.0 | 0.04 | 0.11 | 0.07 | 91 | 1011.9 |
| 20260510175530 | 58 | 186 | 4.0 | 6.0 | 0.05 | 0.11 | 0.07 | 91 | 1011.8 |
| 20260510174605 | 58 | 192 | 5.0 | 8.0 | 0.06 | 0.11 | 0.07 | 90 | 1011.8 |
| 20260510174057 | 58 | 263 | 4.0 | 8.0 | 0.06 | 0.11 | 0.07 | 90 | 1011.8 |
| 20260510173554 | 58 | 280 | 5.0 | 8.0 | 0.04 | 0.08 | 0.05 | 89 | 1011.7 |
| 20260510172605 | 58 | 172 | 6.0 | 9.0 | 0.04 | 0.08 | 0.05 | 88 | 1011.5 |
| 20260510172057 | 58 | 248 | 8.0 | 14.0 | 0.04 | 0.08 | 0.05 | 87 | 1011.1 |
| 20260510171554 | 58 | 292 | 10.0 | 16.0 | 0.04 | 0.08 | 0.05 | 87 | 1011.0 |
| 20260510171045 | 59 | 293 | 10.0 | 18.0 | 0.04 | 0.08 | 0.05 | 87 | 1010.7 |
| 20260510170542 | 59 | 272 | 10.0 | 20.0 | 0.04 | 0.08 | 0.05 | 86 | 1010.8 |
| 20260510170034 | 59 | 299 | 10.0 | 17.0 | 0.02 | 0.07 | 0.04 | 84 | 1010.7 |
| 20260510165530 | 60 | 287 | 10.0 | 17.0 | 0.01 | 0.06 | 0.02 | 82 | 1010.9 |
| 20260510165021 | 61 | 301 | 10.0 | 16.0 | 0.00 | 0.05 | 0.01 | 81 | 1010.9 |
| 20260510164517 | 61 | 288 | 7.0 | 16.0 | 0.00 | 0.05 | 0.01 | 81 | 1010.8 |
| 20260510164109 | 61 | 282 | 8.0 | 16.0 | 0.00 | 0.05 | 0.01 | 81 | 1010.9 |
| 20260510163606 | 61 | 314 | 6.0 | 14.0 | 0.00 | 0.05 | 0.01 | 81 | 1010.7 |
| 20260510163058 | 62 | 278 | 6.0 | 13.0 | 0.00 | 0.05 | 0.01 | 81 | 1010.6 |
| 20260510162554 | 62 | 326 | 7.0 | 11.0 | 0.00 | 0.05 | 0.01 | 80 | 1010.6 |
| 20260510162044 | 62 | 299 | 6.0 | 13.0 | 0.00 | 0.05 | 0.01 | 80 | 1010.5 |
| 20260510161541 | 62 | 298 | 5.0 | 9.0 | 0.00 | 0.05 | 0.01 | 80 | 1010.4 |
| 20260510161033 | 62 | 296 | 5.0 | 9.0 | 0.00 | 0.05 | 0.01 | 80 | 1010.3 |
| 20260510160529 | 62 | 309 | 5.0 | 9.0 | 0.00 | 0.05 | 0.01 | 79 | 1010.2 |
| 20260510160044 | 62 | 300 | 5.0 | 11.0 | 0.00 | 0.05 | 0.01 | 79 | 1010.2 |
| 20260510155541 | 63 | 279 | 3.0 | 8.0 | 0.00 | 0.05 | 0.01 | 79 | 1010.0 |
| 20260510155037 | 63 | 282 | 5.0 | 11.0 | 0.00 | 0.05 | 0.01 | 78 | 1010.0 |
| 20260510154534 | 63 | 318 | 5.0 | 11.0 | 0.00 | 0.05 | 0.01 | 78 | 1010.0 |
| 20260510154030 | 63 | 296 | 6.0 | 11.0 | 0.00 | 0.05 | 0.01 | 77 | 1009.9 |
| 20260510153053 | 63 | 328 | 6.0 | 11.0 | 0.00 | 0.05 | 0.01 | 78 | 1009.8 |
| 20260510152544 | 63 | 317 | 6.0 | 11.0 | 0.00 | 0.05 | 0.01 | 78 | 1009.8 |
| 20260510152041 | 63 | 317 | 5.0 | 11.0 | 0.00 | 0.06 | 0.01 | 78 | 1009.8 |
| 20260510151533 | 63 | 329 | 4.0 | 11.0 | 0.00 | 0.08 | 0.01 | 78 | 1009.7 |
| 20260510151029 | 63 | 305 | 3.0 | 7.0 | 0.00 | 0.08 | 0.01 | 78 | 1009.8 |
| 20260510150523 | 64 | 279 | 6.0 | 11.0 | 0.00 | 0.08 | 0.01 | 77 | 1009.8 |
| 20260510150020 | 64 | 234 | 4.0 | 11.0 | 0.00 | 0.08 | 0.01 | 77 | 1009.9 |
| 20260510145516 | 64 | 266 | 3.0 | 8.0 | 0.00 | 0.08 | 0.01 | 78 | 1009.9 |
| 20260510145108 | 64 | 271 | 1.0 | 6.0 | 0.00 | 0.08 | 0.01 | 78 | 1009.9 |
| 20260510144605 | 64 | 294 | 4.0 | 11.0 | 0.00 | 0.08 | 0.01 | 78 | 1010.0 |
| 20260510144056 | 64 | 268 | 3.0 | 8.0 | 0.00 | 0.08 | 0.01 | 79 | 1009.9 |
| 20260510143553 | 63 | 273 | 5.0 | 11.0 | 0.00 | 0.08 | 0.01 | 79 | 1009.7 |
| 20260510143045 | 62 | 282 | 7.0 | 14.0 | 0.00 | 0.08 | 0.01 | 78 | 1009.5 |
| 20260510142541 | 61 | 261 | 7.0 | 16.0 | 0.00 | 0.08 | 0.01 | 76 | 1009.6 |
| 20260510142033 | 61 | 295 | 10.0 | 18.0 | 0.00 | 0.08 | 0.01 | 77 | 1009.4 |
| 20260510141529 | 61 | 308 | 11.0 | 23.0 | 0.00 | 0.08 | 0.01 | 77 | 1009.5 |
| 20260510141020 | 64 | 240 | 12.0 | 24.0 | 0.00 | 0.08 | 0.01 | 74 | 1009.5 |
| 20260510140517 | 66 | 276 | 5.0 | 9.0 | 0.00 | 0.08 | 0.01 | 73 | 1008.8 |
| 20260510140108 | 67 | 270 | 6.0 | 11.0 | 0.00 | 0.08 | 0.01 | 71 | 1008.8 |
| 20260510135605 | 67 | 295 | 6.0 | 11.0 | 0.00 | 0.08 | 0.01 | 71 | 1009.0 |
| 20260510135059 | 67 | 271 | 5.0 | 11.0 | 0.00 | 0.08 | 0.01 | 68 | 1008.9 |
| 20260510134555 | 66 | 270 | 3.0 | 6.0 | 0.00 | 0.08 | 0.01 | 62 | 1009.1 |
| 20260510134052 | 66 | 215 | 4.0 | 8.0 | 0.00 | 0.08 | 0.01 | 62 | 1009.1 |
| 20260510133544 | 66 | 229 | 4.0 | 8.0 | 0.00 | 0.08 | 0.01 | 64 | 1009.1 |
| 20260510133041 | 65 | 232 | 5.0 | 9.0 | 0.00 | 0.08 | 0.01 | 62 | 1009.1 |
| 20260510132532 | 64 | 223 | 5.0 | 8.0 | 0.01 | 0.08 | 0.01 | 62 | 1009.1 |
| 20260510132029 | 65 | 260 | 5.0 | 11.0 | 0.01 | 0.08 | 0.01 | 65 | 1009.2 |
| 20260510131520 | 64 | 230 | 7.0 | 11.0 | 0.01 | 0.08 | 0.01 | 57 | 1009.1 |
| 20260510131017 | 64 | 225 | 8.0 | 18.0 | 0.01 | 0.08 | 0.01 | 55 | 1009.2 |
| 20260510130610 | 64 | 215 | 5.0 | 8.0 | 0.01 | 0.08 | 0.01 | 55 | 1009.1 |
| 20260510130107 | 64 | 197 | 3.0 | 7.0 | 0.01 | 0.08 | 0.01 | 55 | 1009.1 |
| 20260510125604 | 64 | 198 | 4.0 | 8.0 | 0.01 | 0.08 | 0.01 | 56 | 1009.2 |
| 20260510125056 | 64 | 197 | 4.0 | 8.0 | 0.01 | 0.08 | 0.01 | 56 | 1009.0 |
| 20260510124552 | 63 | 169 | 4.0 | 8.0 | 0.01 | 0.08 | 0.01 | 59 | 1009.0 |
| 20260510124044 | 63 | 142 | 3.0 | 7.0 | 0.01 | 0.08 | 0.01 | 61 | 1009.0 |
| 20260510123541 | 62 | 178 | 2.0 | 6.0 | 0.01 | 0.08 | 0.01 | 62 | 1009.2 |
| 20260510123032 | 62 | 201 | 8.0 | 17.0 | 0.01 | 0.08 | 0.01 | 61 | 1009.8 |
| 20260510122529 | 64 | 219 | 10.0 | 27.0 | 0.00 | 0.07 | 0.00 | 57 | 1010.4 |
| 20260510122022 | 65 | 160 | 10.0 | 21.0 | 0.00 | 0.07 | 0.00 | 56 | 1010.4 |
| 20260510121519 | 65 | 202 | 9.0 | 15.0 | 0.00 | 0.07 | 0.00 | 57 | 1010.3 |
| 20260510121116 | 66 | 187 | 9.0 | 20.0 | 0.00 | 0.07 | 0.00 | 57 | 1010.3 |
| 20260510120607 | 66 | 159 | 8.0 | 20.0 | 0.00 | 0.07 | 0.00 | 58 | 1010.3 |
| 20260510120104 | 66 | 186 | 7.0 | 15.0 | 0.00 | 0.07 | 0.00 | 59 | 1010.3 |
| 20260510115556 | 66 | 173 | 7.0 | 13.0 | 0.00 | 0.07 | 0.00 | 59 | 1010.3 |
| 20260510115053 | 66 | 163 | 6.0 | 11.0 | 0.00 | 0.07 | 0.00 | 60 | 1010.4 |
| 20260510114544 | 66 | 175 | 7.0 | 15.0 | 0.00 | 0.07 | 0.00 | 59 | 1010.3 |
| 20260510114041 | 66 | 184 | 6.0 | 16.0 | 0.00 | 0.07 | 0.00 | 61 | 1010.3 |
| 20260510113532 | 66 | 209 | 1.0 | 4.0 | 0.00 | 0.07 | 0.00 | 67 | 1010.3 |
| 20260510113029 | 66 | 338 | 1.0 | 4.0 | 0.00 | 0.07 | 0.00 | 69 | 1010.3 |
| 20260510112521 | 65 | 320 | 2.0 | 4.0 | 0.00 | 0.07 | 0.00 | 73 | 1010.2 |
| 20260510112018 | 65 | 23 | 3.0 | 4.0 | 0.00 | 0.07 | 0.00 | 74 | 1010.3 |